Location: Ostrava
(49.8330°N, 18.2830°E)
Time: 03:22:42
(UTC+01:00)

Iridium 39 - Visible Passes

Search period start: 18 December 2014 00:00
Search period end: 28 December 2014 00:00
Orbit: 776 x 779 km, 86.4° (Epoch: 17 December)

Date Brightness Start Highest point End Pass type
(mag) Time Alt. Az. Time Alt. Az. Time Alt. Az.
20 Dec 8.5 06:50:10 10° NNE 06:53:39 18° ENE 06:57:07 10° ESE visible
21 Dec 8.9 06:18:34 10° NE 06:19:37 11° ENE 06:20:40 10° ENE visible
23 Dec 8.2 06:49:47 10° NNE 06:53:58 24° ENE 06:58:07 10° SE visible
24 Dec 8.7 06:17:10 10° NNE 06:20:01 15° ENE 06:22:51 10° E visible
26 Dec 7.8 06:49:33 10° NNE 06:54:13 32° ENE 06:58:50 10° SE visible
27 Dec 8.5 06:16:35 10° NNE 06:20:20 20° ENE 06:24:05 10° ESE visible
